Location: Unspecified
(36.8234°N, 0.0000°E)
Time: 10:34:41
(UTC+00:00)

Altair - Visible Passes

Search period start: 04 April 2026 00:00
Search period end: 14 April 2026 00:00
Orbit: 1502 x 1682 km, 47.2° (Epoch: 29 March)

Date Brightness Start Highest point End Pass type
(mag) Time Alt. Az. Time Alt. Az. Time Alt. Az.
4 Apr 8.0 20:05:34 10° WNW 20:14:46 50° NNE 20:20:18 24° ENE visible
4 Apr 7.6 22:10:45 10° WNW 22:18:19 63° WNW 22:18:19 63° WNW visible
5 Apr 8.1 19:40:13 10° WNW 19:49:25 48° NNE 19:56:22 18° E visible
5 Apr 7.3 21:45:29 10° WNW 21:54:23 82° WNW 21:54:23 82° WNW visible
5 Apr 9.4 23:51:20 10° WNW 23:52:24 13° W 23:52:24 13° W visible
6 Apr 8.1 19:14:52 10° WNW 19:24:04 47° N 19:32:28 12° E visible
6 Apr 7.2 21:20:12 10° WNW 21:29:42 86° NE 21:30:29 77° ESE visible
6 Apr 9.1 23:25:52 10° WNW 23:28:30 19° W 23:28:30 19° W visible
7 Apr 8.2 18:49:29 10° WNW 18:58:42 46° N 19:07:35 10° E visible
7 Apr 7.3 20:54:56 10° WNW 21:04:27 81° NNE 21:06:36 59° ESE visible
7 Apr 8.8 23:00:27 10° WNW 23:04:36 25° W 23:04:36 25° W visible
8 Apr 7.4 20:29:39 10° WNW 20:39:12 77° NNE 20:42:44 43° ESE visible
8 Apr 8.5 22:35:02 10° WNW 22:40:45 32° W 22:40:45 32° W visible
9 Apr 7.5 20:04:22 10° WNW 20:13:56 73° NNE 20:18:54 32° ESE visible
9 Apr 8.1 22:09:40 10° WNW 22:16:55 40° WSW 22:16:55 40° WSW visible
10 Apr 7.6 19:39:05 10° WNW 19:48:40 69° NNE 19:55:06 22° ESE visible
10 Apr 7.9 21:44:19 10° WNW 21:53:04 45° SW 21:53:07 45° SW visible
11 Apr 7.7 19:13:47 10° WNW 19:23:22 66° NNE 19:31:21 15° ESE visible
11 Apr 7.7 21:18:58 10° WNW 21:27:55 50° SW 21:29:22 46° SSW visible
12 Apr 7.8 18:48:30 10° WNW 18:58:04 62° NNE 19:07:16 10° ESE visible
12 Apr 7.8 20:53:39 10° WNW 21:02:45 54° SW 21:05:39 41° S visible
12 Apr 9.4 23:03:12 10° WSW 23:03:40 10° WSW 23:03:40 10° WSW visible
13 Apr 7.7 20:28:20 10° WNW 20:37:35 59° SW 20:41:58 33° SSE visible
13 Apr 9.3 22:36:44 10° W 22:40:00 13° WSW 22:40:00 13° WSW visible
